Weather History for KT82 - October, 2011

Change the Weather History Date:

Friday, October 21, 2011

  Actual Average (KSAT) Record (KSAT)
Temperature  
Mean Temperature 66 °F 70 °F  
Max Temperature 82 °F 81 °F 92 °F (1979)
Min Temperature 51 °F 59 °F 36 °F (1976)
Degree Days  
Heating Degree Days 0 1  
Month to date heating degree days 10  
Since 1 July heating degree days 12  
Cooling Degree Days 2 6  
Month to date cooling degree days 169  
Year to date cooling degree days 3003  
Growing Degree Days 16 (Base 50)    
Moisture  
Dew Point 51 °F    
Average Humidity 58    
Maximum Humidity 88    
Minimum Humidity 32    
Precipitation  
Precipitation 0.00 in 0.15 in 2.18 in (1957)
Month to date precipitation 2.90  
Year to date precipitation 26.87  
Snow  
Snow 0.00 in - - ()
Month to date snowfall  
Since 1 July snowfall  
Since 1 September snowfall  
Snow Depth -    
Sea Level Pressure  
Sea Level Pressure 30.11 in    
Wind  
Wind Speed 4 mph (South)    
Max Wind Speed 13 mph    
Max Gust Speed 20 mph    
Visibility 10 miles    
Events      
T = Trace of Precipitation, MM = Missing Value Source: NWS Daily Summary

Daily Weather History Graph

Daily Weather History Graph

Search for Another Location

Airport or City:

Trip Planner

Search our weather history database for the weather conditions in past years. The results will help you decide how hot, cold, wet, or windy it might be!

Date:

Astronomy

Oct. 21, 2011 Rise Set
Actual Time 7:41 AM CDT 6:58 PM CDT
Civil Twilight 7:17 AM CDT 7:22 PM CDT
Nautical Twilight 6:49 AM CDT 7:50 PM CDT
Astronomical Twilight 6:21 AM CDT 8:18 PM CDT
Moon 1:58 AM CDT (10/21) 3:21 PM CDT (10/21)
Length of Visible Light 12h 05m
Length of Day
11h 16m
Waning Crescent, 33% of the Moon is Illuminated
Oct 21
Waning Crescent
Oct 26
New
Nov 2
First Quarter
Nov 10
Full
Nov 18
Last Quarter

Hourly Weather History & Observations

Time (CDT) Temp. Dew Point Humidity Pressure Visibility Wind Dir Wind Speed Gust Speed Precip Events Conditions
12:15 AM 62.6 °F 42.8 °F 48% 30.08 in 10.0 mi South 4.6 mph - N/A   Clear
12:35 AM 60.8 °F 42.8 °F 52% 30.08 in 10.0 mi South 4.6 mph - N/A   Clear
12:55 AM 59.0 °F 42.8 °F 55% 30.08 in 10.0 mi SSE 5.8 mph - N/A   Clear
1:15 AM 60.8 °F 44.6 °F 55% 30.08 in 10.0 mi South 4.6 mph - N/A   Clear
1:35 AM 59.0 °F 44.6 °F 59% 30.07 in 10.0 mi Calm Calm - N/A   Clear
1:55 AM 55.4 °F 44.6 °F 67% 30.08 in 10.0 mi Calm Calm - N/A   Clear
2:15 AM 53.6 °F 42.8 °F 67% 30.08 in 10.0 mi Calm Calm - N/A   Clear
2:35 AM 53.6 °F 44.6 °F 72% 30.08 in 10.0 mi Calm Calm - N/A   Clear
2:55 AM 51.8 °F 42.8 °F 71% 30.08 in 10.0 mi Calm Calm - N/A   Clear
3:15 AM 51.8 °F 42.8 °F 71% 30.08 in 10.0 mi Calm Calm - N/A   Clear
3:35 AM 53.6 °F 44.6 °F 72% 30.08 in 10.0 mi Calm Calm - N/A   Clear
3:55 AM 55.4 °F 46.4 °F 72% 30.08 in 10.0 mi Calm Calm - N/A   Clear
4:15 AM 57.2 °F 48.2 °F 72% 30.08 in 10.0 mi Calm Calm - N/A   Clear
4:35 AM 55.4 °F 48.2 °F 77% 30.09 in 10.0 mi Calm Calm - N/A   Clear
4:55 AM 55.4 °F 50.0 °F 82% 30.09 in 10.0 mi Calm Calm - N/A   Clear
5:15 AM 57.2 °F 50.0 °F 77% 30.09 in 10.0 mi Calm Calm - N/A   Clear
5:35 AM 57.2 °F 50.0 °F 77% 30.09 in 10.0 mi Calm Calm - N/A   Clear
5:55 AM 57.2 °F 50.0 °F 77% 30.09 in 10.0 mi Calm Calm - N/A   Clear
6:15 AM 57.2 °F 51.8 °F 82% 30.10 in 10.0 mi Calm Calm - N/A   Clear
6:35 AM 57.2 °F 51.8 °F 82% 30.11 in 10.0 mi Calm Calm - N/A   Clear
6:55 AM 55.4 °F 50.0 °F 82% 30.11 in 10.0 mi Calm Calm - N/A   Clear
7:15 AM 55.4 °F 50.0 °F 82% 30.12 in 10.0 mi Calm Calm - N/A   Clear
7:35 AM 55.4 °F 50.0 °F 82% 30.12 in 10.0 mi Calm Calm - N/A   Clear
7:55 AM 55.4 °F 50.0 °F 82% 30.13 in 10.0 mi Calm Calm - N/A   Clear
8:15 AM 55.4 °F 51.8 °F 88% 30.14 in 10.0 mi Calm Calm - N/A   Clear
8:35 AM 59.0 °F 53.6 °F 82% 30.14 in 10.0 mi Calm Calm - N/A   Clear
8:55 AM 60.8 °F 53.6 °F 77% 30.14 in 10.0 mi Calm Calm - N/A   Clear
9:15 AM 62.6 °F 55.4 °F 77% 30.15 in 10.0 mi SSW 3.5 mph - N/A   Clear
9:55 AM 68.0 °F 55.4 °F 64% 30.17 in 10.0 mi South 9.2 mph - N/A   Clear
10:15 AM 69.8 °F 55.4 °F 60% 30.17 in 10.0 mi South 9.2 mph - N/A   Clear
10:35 AM 69.8 °F 55.4 °F 60% 30.17 in 10.0 mi SSW 9.2 mph - N/A   Clear
10:55 AM 71.6 °F 55.4 °F 57% 30.17 in 10.0 mi SSW 6.9 mph - N/A   Clear
11:15 AM 73.4 °F 53.6 °F 50% 30.17 in 10.0 mi South 10.4 mph - N/A   Clear
11:35 AM 73.4 °F 53.6 °F 50% 30.16 in 10.0 mi South 11.5 mph 19.6 mph N/A   Clear
11:55 AM 75.2 °F 53.6 °F 47% 30.16 in 10.0 mi SSW 10.4 mph 16.1 mph N/A   Clear
12:15 PM 77.0 °F 53.6 °F 44% 30.15 in 10.0 mi South 9.2 mph - N/A   Clear
12:35 PM 77.0 °F 51.8 °F 41% 30.15 in 10.0 mi South 11.5 mph 17.3 mph N/A   Clear
12:55 PM 78.8 °F 51.8 °F 39% 30.14 in 10.0 mi South 9.2 mph 18.4 mph N/A   Clear
1:15 PM 78.8 °F 51.8 °F 39% 30.13 in 10.0 mi SSE 6.9 mph 18.4 mph N/A   Clear
1:35 PM 78.8 °F 51.8 °F 39% 30.12 in 10.0 mi South 11.5 mph 17.3 mph N/A   Clear
1:55 PM 80.6 °F 51.8 °F 37% 30.12 in 10.0 mi SSW 11.5 mph - N/A   Clear
2:15 PM 80.6 °F 51.8 °F 37% 30.11 in 10.0 mi South 6.9 mph - N/A   Clear
2:35 PM 80.6 °F 51.8 °F 37% 30.10 in 10.0 mi SSE 12.7 mph - N/A   Clear
2:55 PM 80.6 °F 51.8 °F 37% 30.09 in 10.0 mi South 10.4 mph - N/A   Clear
3:15 PM 80.6 °F 50.0 °F 34% 30.09 in 10.0 mi SSW 10.4 mph - N/A   Clear
3:35 PM 82.4 °F 50.0 °F 32% 30.09 in 10.0 mi South 10.4 mph - N/A   Clear
3:55 PM 82.4 °F 50.0 °F 32% 30.08 in 10.0 mi SSW 8.1 mph 17.3 mph N/A   Clear
4:15 PM 80.6 °F 50.0 °F 34% 30.08 in 10.0 mi SSW 10.4 mph - N/A   Clear
4:55 PM 82.4 °F 50.0 °F 32% 30.07 in 10.0 mi South 10.4 mph 16.1 mph N/A   Clear
5:15 PM 80.6 °F 50.0 °F 34% 30.07 in 10.0 mi South 11.5 mph - N/A   Clear
5:35 PM 80.6 °F 50.0 °F 34% 30.07 in 10.0 mi South 11.5 mph - N/A   Clear
5:55 PM 78.8 °F 51.8 °F 39% 30.07 in 10.0 mi SSE 10.4 mph - N/A   Clear
6:15 PM 78.8 °F 51.8 °F 39% 30.08 in 10.0 mi SSE 12.7 mph - N/A   Clear
6:35 PM 77.0 °F 53.6 °F 44% 30.08 in 10.0 mi South 10.4 mph - N/A   Clear
6:55 PM 75.2 °F 53.6 °F 47% 30.08 in 10.0 mi SSE 8.1 mph - N/A   Clear
7:15 PM 73.4 °F 53.6 °F 50% 30.08 in 10.0 mi South 8.1 mph - N/A   Clear
7:35 PM 71.6 °F 53.6 °F 53% 30.08 in 10.0 mi SSE 4.6 mph - N/A   Clear
7:55 PM 69.8 °F 53.6 °F 56% 30.08 in 10.0 mi SSE 4.6 mph - N/A   Clear
8:15 PM 69.8 °F 53.6 °F 56% 30.09 in 10.0 mi SSE 4.6 mph - N/A   Clear
8:35 PM 69.8 °F 53.6 °F 56% 30.09 in 10.0 mi South 4.6 mph - N/A   Clear
8:55 PM 68.0 °F 53.6 °F 60% 30.09 in 10.0 mi SSE 3.5 mph - N/A   Clear
9:15 PM 69.8 °F 53.6 °F 56% 30.09 in 10.0 mi SSE 3.5 mph - N/A   Clear
9:35 PM 68.0 °F 53.6 °F 60% 30.10 in 10.0 mi SSE 3.5 mph - N/A   Clear
9:55 PM 68.0 °F 53.6 °F 60% 30.10 in 10.0 mi SSE 6.9 mph - N/A   Clear
10:15 PM 68.0 °F 53.6 °F 60% 30.10 in 10.0 mi SSE 6.9 mph - N/A   Clear
10:35 PM 68.0 °F 55.4 °F 64% 30.11 in 10.0 mi SSE 8.1 mph - N/A   Clear
10:55 PM 68.0 °F 55.4 °F 64% 30.11 in 10.0 mi South 10.4 mph - N/A   Clear
11:15 PM 68.0 °F 57.2 °F 68% 30.12 in 10.0 mi South 8.1 mph - N/A   Clear
11:35 PM 68.0 °F 57.2 °F 68% 30.12 in 10.0 mi South 9.2 mph - N/A   Clear
11:55 PM 66.2 °F 57.2 °F 73% 30.12 in 10.0 mi South 6.9 mph - N/A   Clear